Weather History for Ogden, UT

Change the Weather History Date:

Sunday, March 23, 2014

  Actual Average Record
Temperature  
Mean Temperature 42 °F -  
Max Temperature 55 °F 57 °F 75 °F (1972)
Min Temperature 28 °F 33 °F 14 °F (1952)
Degree Days  
Heating Degree Days 24    
Moisture  
Dew Point 11 °F    
Average Humidity 31    
Maximum Humidity 49    
Minimum Humidity 15    
Precipitation  
Precipitation 0.00 in - - ()
Sea Level Pressure  
Sea Level Pressure 30.15 in    
Wind  
Wind Speed 8 mph (South)    
Max Wind Speed 12 mph    
Max Gust Speed 18 mph    
Visibility 10 miles    
Events      
Averages and records for this station are not official NWS values.
T = Trace of Precipitation, MM = Missing Value Source: NWS Daily Summary

Daily Weather History Graph

Daily Weather History Graph

Search for Another Location

Airport:

Trip Planner

Search our weather history database for the weather conditions in past years. The results will help you decide how hot, cold, wet, or windy it might be!

Date:

Astronomy

Mar. 23, 2014 Rise Set
Actual Time 7:26 AM MDT 7:43 PM MDT
Civil Twilight 6:58 AM MDT 8:11 PM MDT
Nautical Twilight 6:26 AM MDT 8:43 PM MDT
Astronomical Twilight 5:53 AM MDT 9:16 PM MDT
Moon 2:06 AM MDT (3/23) 12:08 PM MDT (3/23)
Length of Visible Light 13h 12m
Length of Day
12h 17m
Waning Gibbous, 54% of the Moon is Illuminated
Mar 23
Waning Gibbous
Mar 23
Last Quarter
Mar 30
New
Apr 7
First Quarter
Apr 15
Full

Hourly Weather History & Observations

Time (MDT) Temp. Windchill Dew Point Humidity Pressure Visibility Wind Dir Wind Speed Gust Speed Precip Events Conditions
12:53 AM 34.0 °F 28.0 °F 15.1 °F 46% 30.18 in 10.0 mi South 6.9 mph - N/A   Clear
1:53 AM 34.0 °F 26.6 °F 14.0 °F 44% 30.17 in 10.0 mi South 9.2 mph - N/A   Clear
2:53 AM 33.1 °F 24.4 °F 12.9 °F 43% 30.16 in 10.0 mi South 11.5 mph - N/A   Clear
3:53 AM 32.0 °F 24.2 °F 12.9 °F 45% 30.16 in 10.0 mi South 9.2 mph - N/A   Clear
4:53 AM 30.0 °F 23.2 °F 12.0 °F 47% 30.16 in 10.0 mi South 6.9 mph - N/A   Clear
5:53 AM 30.0 °F 22.4 °F 12.0 °F 47% 30.17 in 10.0 mi South 8.1 mph - N/A   Clear
6:53 AM 30.0 °F 21.1 °F 12.0 °F 47% 30.17 in 10.0 mi South 10.4 mph - N/A   Clear
7:53 AM 28.9 °F 21.1 °F 12.0 °F 49% 30.20 in 10.0 mi South 8.1 mph - N/A   Clear
8:53 AM 34.0 °F 27.2 °F 12.9 °F 42% 30.19 in 10.0 mi South 8.1 mph - N/A   Clear
9:53 AM 42.1 °F 35.7 °F 12.9 °F 31% 30.18 in 10.0 mi South 11.5 mph - N/A   Clear
10:53 AM 46.9 °F - 14.0 °F 27% 30.19 in 10.0 mi SSE 8.1 mph - N/A   Clear
11:53 AM 50.0 °F - 9.0 °F 19% 30.17 in 10.0 mi SSW 9.2 mph - N/A   Clear
12:53 PM 52.0 °F - 10.9 °F 19% 30.17 in 10.0 mi SW 11.5 mph - N/A   Clear
1:53 PM 52.0 °F - 9.0 °F 18% 30.16 in 10.0 mi WSW 8.1 mph 18.4 mph N/A   Clear
2:53 PM 54.0 °F - 10.0 °F 17% 30.14 in 10.0 mi West 8.1 mph - N/A   Clear
3:53 PM 54.0 °F - 6.1 °F 15% 30.13 in 10.0 mi West 11.5 mph - N/A   Clear
4:53 PM 55.0 °F - 7.0 °F 15% 30.12 in 10.0 mi WSW 9.2 mph - N/A   Clear
5:53 PM 54.0 °F - 8.1 °F 16% 30.11 in 10.0 mi SW 6.9 mph - N/A   Clear
6:53 PM 53.1 °F - 7.0 °F 16% 30.10 in 10.0 mi SSW 8.1 mph - N/A   Clear
7:53 PM 48.9 °F - 8.1 °F 19% 30.11 in 10.0 mi SSE 8.1 mph - N/A   Clear
8:53 PM 46.0 °F 42.5 °F 10.0 °F 23% 30.11 in 10.0 mi SSE 6.9 mph - N/A   Clear
9:53 PM 45.0 °F 42.6 °F 9.0 °F 23% 30.10 in 10.0 mi SSE 4.6 mph - N/A   Clear
10:53 PM 39.9 °F 35.8 °F 12.0 °F 32% 30.12 in 10.0 mi South 5.8 mph - N/A   Clear
11:53 PM 39.0 °F 34.0 °F 12.0 °F 33% 30.12 in 10.0 mi South 6.9 mph - N/A   Clear